Change the Weather History Date:

Wednesday, July 10, 2013

  Actual Average (KEGV) Record (KEGV)
Temperature  
Mean Temperature 60 °F -  
Max Temperature 70 °F 79 °F 92 °F (1980)
Min Temperature 50 °F 54 °F 39 °F (2014)
Degree Days  
Heating Degree Days 5    
Growing Degree Days 10 (Base 50)    
Moisture  
Dew Point 53 °F    
Average Humidity 74    
Maximum Humidity 97    
Minimum Humidity 44    
Precipitation  
Precipitation 0.00 in - - ()
Sea Level Pressure  
Sea Level Pressure 29.95 in    
Wind  
Wind Speed 9 mph (NW)    
Max Wind Speed 17 mph    
Max Gust Speed 25 mph    
Visibility 10 miles    
Events      
Averages and records for this station are not official NWS values.
T = Trace of Precipitation, MM = Missing Value Source: NWS Daily Summary

Daily Weather History Graph

Daily Weather History Graph

Search for Another Location

Airport or City:

Trip Planner

Search our weather history database for the weather conditions in past years. The results will help you decide how hot, cold, wet, or windy it might be!

Date:

Astronomy

Jul. 10, 2013 Rise Set
Actual Time 5:16 AM CDT 8:48 PM CDT
Civil Twilight 4:38 AM CDT 9:25 PM CDT
Nautical Twilight 3:48 AM CDT 10:15 PM CDT
Astronomical Twilight 2:42 AM CDT 11:20 PM CDT
Moon 7:47 AM CDT (7/10) 9:45 PM CDT (7/10)
Length of Visible Light 16h 47m
Length of Day
15h 32m
Waxing Crescent, 5% of the Moon is Illuminated
Jul 10
Waxing Crescent
Jul 15
First Quarter
Jul 22
Full
Jul 29
Last Quarter
Aug 6
New

Hourly Weather History & Observations

Time (CDT) Temp. Dew Point Humidity Pressure Visibility Wind Dir Wind Speed Gust Speed Precip Events Conditions
12:15 AM 66.2 °F 63.9 °F 92% 29.82 in 10.0 mi WNW 6.9 mph - N/A   Overcast
12:35 AM 66.6 °F 63.5 °F 90% 29.82 in 10.0 mi WNW 9.2 mph 16.1 mph N/A   Overcast
12:55 AM 66.2 °F 63.5 °F 91% 29.83 in 10.0 mi WNW 8.1 mph 16.1 mph N/A   Drizzle
1:15 AM 64.4 °F 61.0 °F 89% 29.83 in 10.0 mi NW 10.4 mph 21.9 mph N/A   Overcast
1:35 AM 63.9 °F 60.8 °F 90% 29.84 in 10.0 mi NW 12.7 mph 17.3 mph N/A   Overcast
1:55 AM 63.1 °F 59.7 °F 89% 29.84 in 10.0 mi NW 8.1 mph - N/A   Mostly Cloudy
2:15 AM 61.9 °F 58.5 °F 89% 29.84 in 10.0 mi NW 8.1 mph - N/A   Scattered Clouds
2:55 AM 60.3 °F 56.8 °F 88% 29.84 in 10.0 mi WNW 9.2 mph 17.3 mph N/A   Scattered Clouds
3:15 AM 59.5 °F 57.2 °F 92% 29.84 in 10.0 mi WNW 8.1 mph - N/A   Scattered Clouds
3:35 AM 59.7 °F 56.5 °F 89% 29.85 in 10.0 mi WNW 8.1 mph - N/A   Scattered Clouds
3:55 AM 59.2 °F 56.1 °F 90% 29.85 in 10.0 mi WNW 9.2 mph 16.1 mph N/A   Clear
4:15 AM 58.8 °F 55.8 °F 90% 29.86 in 10.0 mi WNW 6.9 mph - N/A   Clear
4:35 AM 58.3 °F 55.4 °F 90% 29.87 in 10.0 mi West 5.8 mph - N/A   Clear
4:55 AM 58.1 °F 55.4 °F 91% 29.87 in 10.0 mi West 8.1 mph - N/A   Scattered Clouds
5:15 AM 59.0 °F 56.1 °F 90% 29.88 in 10.0 mi WNW 10.4 mph 16.1 mph N/A   Mostly Cloudy
5:35 AM 59.2 °F 55.9 °F 89% 29.87 in 10.0 mi WNW 15.0 mph 21.9 mph N/A   Overcast
5:55 AM 59.2 °F 55.4 °F 87% 29.89 in 10.0 mi NW 13.8 mph 20.7 mph N/A   Overcast
6:15 AM 59.2 °F 55.4 °F 87% 29.90 in 10.0 mi NW 10.4 mph 16.1 mph N/A   Overcast
6:35 AM 59.2 °F 55.0 °F 86% 29.90 in 10.0 mi NW 10.4 mph 17.3 mph N/A   Overcast
6:55 AM 59.2 °F 54.7 °F 85% 29.90 in 10.0 mi WNW 10.4 mph - N/A   Overcast
7:15 AM 59.4 °F 54.5 °F 84% 29.90 in 10.0 mi NW 12.7 mph 18.4 mph N/A   Overcast
7:35 AM 59.4 °F 54.5 °F 84% 29.91 in 10.0 mi WNW 6.9 mph - N/A   Overcast
7:55 AM 59.4 °F 53.8 °F 82% 29.92 in 10.0 mi WNW 10.4 mph 20.7 mph N/A   Overcast
8:15 AM 60.1 °F 54.1 °F 81% 29.92 in 10.0 mi WNW 13.8 mph 20.7 mph N/A   Overcast
8:35 AM 60.8 °F 54.3 °F 79% 29.93 in 10.0 mi NW 10.4 mph 19.6 mph N/A   Overcast
8:55 AM 60.8 °F 53.4 °F 77% 29.94 in 10.0 mi WNW 12.7 mph 19.6 mph N/A   Overcast
9:15 AM 61.3 °F 53.6 °F 76% 29.94 in 10.0 mi NW 12.7 mph 20.7 mph N/A   Mostly Cloudy
9:35 AM 62.6 °F 54.3 °F 74% 29.94 in 10.0 mi NW 10.4 mph 17.3 mph N/A   Mostly Cloudy
9:55 AM 64.4 °F 54.1 °F 69% 29.94 in 10.0 mi WNW 8.1 mph 18.4 mph N/A   Scattered Clouds
10:15 AM 62.8 °F 52.3 °F 69% 29.95 in 10.0 mi NW 13.8 mph 21.9 mph N/A   Mostly Cloudy
10:35 AM 64.6 °F 53.8 °F 68% 29.95 in 10.0 mi NW 9.2 mph 20.7 mph N/A   Mostly Cloudy
10:55 AM 64.8 °F 53.1 °F 66% 29.95 in 10.0 mi NW 8.1 mph 19.6 mph N/A   Mostly Cloudy
11:15 AM 63.9 °F 53.1 °F 68% 29.96 in 10.0 mi NW 10.4 mph 17.3 mph N/A   Mostly Cloudy
11:35 AM 64.6 °F 53.1 °F 66% 29.96 in 10.0 mi NW 10.4 mph - N/A   Mostly Cloudy
11:55 AM 64.6 °F 53.2 °F 67% 29.97 in 10.0 mi NW 9.2 mph 17.3 mph N/A   Mostly Cloudy
12:15 PM 64.8 °F 51.8 °F 63% 29.97 in 10.0 mi NW 10.4 mph 17.3 mph N/A   Mostly Cloudy
12:35 PM 65.1 °F 51.8 °F 62% 29.98 in 10.0 mi NW 12.7 mph 25.3 mph N/A   Mostly Cloudy
12:55 PM 65.7 °F 51.4 °F 60% 29.98 in 10.0 mi NW 10.4 mph 17.3 mph N/A   Mostly Cloudy
1:15 PM 64.8 °F 52.2 °F 64% 29.99 in 10.0 mi NW 8.1 mph 20.7 mph N/A   Overcast
1:35 PM 67.3 °F 51.6 °F 57% 29.99 in 10.0 mi NNW 10.4 mph 18.4 mph N/A   Mostly Cloudy
1:55 PM 65.3 °F 51.1 °F 60% 29.99 in 10.0 mi NNW 11.5 mph 18.4 mph N/A   Overcast
2:15 PM 67.3 °F 50.5 °F 55% 29.99 in 10.0 mi NNW 15.0 mph 21.9 mph N/A   Mostly Cloudy
2:35 PM 67.6 °F 49.6 °F 52% 29.99 in 10.0 mi NNW 17.3 mph 20.7 mph N/A   Mostly Cloudy
2:55 PM 66.7 °F 49.1 °F 53% 29.99 in 10.0 mi NW 9.2 mph 25.3 mph N/A   Overcast
3:15 PM 68.5 °F 48.9 °F 49% 29.98 in 10.0 mi NW 8.1 mph 19.6 mph N/A   Scattered Clouds
3:35 PM 68.5 °F 48.6 °F 49% 29.99 in 10.0 mi WNW 10.4 mph 19.6 mph N/A   Scattered Clouds
3:55 PM 68.4 °F 48.0 °F 48% 29.99 in 10.0 mi NNW 10.4 mph 21.9 mph N/A   Mostly Cloudy
4:15 PM 69.8 °F 49.1 °F 48% 29.99 in 10.0 mi NW 12.7 mph 24.2 mph N/A   Mostly Cloudy
4:35 PM 67.8 °F 48.6 °F 50% 29.99 in 10.0 mi NNW 9.2 mph 18.4 mph N/A   Scattered Clouds
4:55 PM 68.9 °F 48.7 °F 49% 29.99 in 10.0 mi NNW 9.2 mph 18.4 mph N/A   Scattered Clouds
5:15 PM 70.3 °F 49.1 °F 47% 29.99 in 10.0 mi NNW 16.1 mph 23.0 mph N/A   Scattered Clouds
5:35 PM 70.3 °F 47.7 °F 44% 29.99 in 10.0 mi NW 11.5 mph 20.7 mph N/A   Mostly Cloudy
5:55 PM 69.1 °F 48.6 °F 48% 29.99 in 10.0 mi NW 8.1 mph 17.3 mph N/A   Scattered Clouds
6:15 PM 69.1 °F 48.2 °F 47% 30.00 in 10.0 mi NW 8.1 mph 18.4 mph N/A   Scattered Clouds
6:35 PM 68.9 °F 48.9 °F 49% 30.00 in 10.0 mi NW 6.9 mph - N/A   Clear
6:55 PM 68.5 °F 48.7 °F 49% 30.01 in 10.0 mi NW 8.1 mph - N/A   Clear
7:15 PM 68.0 °F 49.3 °F 51% 30.01 in 10.0 mi WNW 5.8 mph - N/A   Clear
7:35 PM 67.3 °F 50.2 °F 54% 30.01 in 10.0 mi NW 4.6 mph - N/A   Clear
7:55 PM 66.2 °F 51.3 °F 59% 30.01 in 10.0 mi WNW 3.5 mph - N/A   Clear
8:15 PM 64.4 °F 52.3 °F 65% 30.01 in 10.0 mi WNW 3.5 mph - N/A   Clear
8:35 PM 61.3 °F 53.6 °F 76% 30.01 in 10.0 mi West 3.5 mph - N/A   Clear
8:55 PM 57.7 °F 54.5 °F 89% 30.01 in 10.0 mi West 3.5 mph - N/A   Clear
9:15 PM 55.8 °F 54.0 °F 94% 30.02 in 10.0 mi West 3.5 mph - N/A   Clear
9:35 PM 54.9 °F 53.6 °F 96% 30.02 in 10.0 mi Calm Calm - N/A   Clear
9:55 PM 54.1 °F 52.9 °F 95% 30.03 in 7.0 mi West 3.5 mph - N/A   Clear
10:15 PM 53.4 °F 52.2 °F 95% 30.03 in 10.0 mi Calm Calm - N/A   Clear
10:35 PM 52.5 °F 51.6 °F 97% 30.03 in 7.0 mi Calm Calm - N/A   Clear
10:55 PM 51.8 °F 50.9 °F 97% 30.03 in 7.0 mi Calm Calm - N/A   Clear
11:15 PM 51.8 °F 51.1 °F 97% 30.03 in 7.0 mi Calm Calm - N/A   Clear
11:35 PM 50.9 °F 50.2 °F 97% 30.04 in 7.0 mi Calm Calm - N/A   Clear
11:55 PM 50.9 °F 50.2 °F 97% 30.05 in 7.0 mi Calm Calm - N/A   Clear